sat.trackr.live / text

‹ back to catalog

STARLINK-33636

NORAD 63379 · 2025-063S

PAYLOAD ACTIVE UNKNOWN

§ Identity

Operator
Country
US
Launch date
2025-03-26
Launch site
AFWTR
Launch vehicle
Mass (kg)
RCS (m²)

Purposes: comms

External: N2YO · Heavens-Above · Gunter

§ Orbital elements

Epoch: 2026-09-20T03:52:33.123936Z

Period
92.63 min
Inclination
53.1528°
Eccentricity
0.0008859
Mean motion
15.54495176 rev/d
Perigee alt
397.6 km
Apogee alt
409.6 km
Semi-major
6,781.8 km
B*
1.6135e-3
RAAN
217.0820°
Arg perigee
56.0142°
Mean anomaly
304.1710°
Rev number
8,465

§ Raw data

STARLINK-336361 63379U 25063S   26263.16149449  .00109274  00000+0  16135-2 0  99912 63379  53.1528 217.0820 0008859  56.0142 304.1710 15.54495176 84658

JSON: /api/v1/satellites/63379 · /tle

For live sub-satellite position, see the globe view (requires WebGL).

§ Visibility from observer

Set your observer location to see the next 7 days of passes ≥ 10°. The values pass through the URL so the page stays shareable.

No JS? Fill the form by hand. The geolocation button needs JavaScript.